User: anonymous   Login
Location: Unspecified
(0.0000°N, 0.0000°E)
Time: 11:17:03
(UTC+00:00)
Language:

Falcon 9 debris - Orbit

View from above orbital plane
View from above orbital plane
View from above satellite
View from above satellite

Ground track
Ground track

The orbit data is extracted from the following two-line orbital elements,

1 44298U 19029BR  19343.62510393 +.00001596 +00000-0 +43294-4 0  9994
2 44298 053.0036 305.7808 0004383 177.7485 182.3540 15.44212847032055
Epoch (UTC): 09 December 2019 15:00:08
Eccentricity: 0.0004383
inclination: 53.0036°
perigee height: 431 km
apogee height: 436 km
right ascension of ascending node: 305.7808°
argument of perigee: 177.7485°
revolutions per day: 15.44212847
mean anomaly at epoch: 182.3540°
orbit number at epoch: 3205

The dashed part of the orbit path shows where the satellite is in the earth's shadow,  

DLR